GFSNW_con_3kmhel_135.txt.gz
Helicity
40 29 24 62 56 54 51 40 53 42 38 59 34 21 7 36 13 30 33 38 49 26 32 24 23 14 45 37 38 44 54 50 23 58 74 81 95 62 44 20 -37 -13 8 15
34 22 14 50 103 61 22 33 35 58 36 33 40 28 15 15 23 26 23 8 32 33 21 25 22 30 49 54 58 66 58 39 20 16 24 47 31 -25 -24 -8 25 31 10 20
36 24 6 30 89 65 33 37 36 32 26 28 25 27 16 15 9 10 15 6 21 16 11 24 13 23 40 52 60 74 69 51 36 25 20 11 -39 -57 -41 -15 26 11 103 31
46 42 21 -5 52 69 44 35 39 14 28 9 6 7 14 18 12 1 4 1 8 3 -10 -16 -21 -12 -16 -1 -3 12 16 -14 -18 -9 -10 -27 -16 -15 -5 110 121 62 39 51
63 54 49 24 -0 32 25 17 40 44 29 23 27 23 6 4 -9 -1 -4 -6 -14 -8 -5 -10 -30 -38 -36 -40 -55 -46 -51 -36 -37 -55 -42 -23 4 18 35 87 79 62 23 24
67 72 68 60 41 -7 2 13 9 -1 17 18 20 21 33 31 20 -10 -21 -26 -30 -27 -30 -37 -39 -20 -6 -15 -39 -63 -27 -17 -31 -39 -4 -23 5 43 56 96 92 47 17 55
68 71 81 83 74 33 -0 4 -4 -13 12 -4 2 13 9 23 29 34 42 28 13 53 66 56 43 50 40 44 74 107 65 57 49 17 7 -5 73 100 81 10 72 57 58 103
81 78 75 84 77 69 20 10 3 6 15 16 12 13 15 16 19 14 24 48 70 70 56 39 23 28 34 62 114 92 135 91 75 59 58 61 82 66 109 123 143 130 120 112
86 85 84 84 83 59 29 30 17 20 24 27 46 28 30 10 22 37 39 46 66 58 44 49 41 37 60 47 47 48 59 75 95 92 78 87 92 75 84 111 115 134 123 117
83 85 80 77 88 78 44 47 42 31 40 62 64 46 45 51 45 58 58 50 59 64 55 63 64 74 98 69 57 62 75 73 60 78 121 87 132 125 136 159 201 138 94 32
79 85 81 78 81 81 46 62 58 54 62 66 74 80 89 80 63 50 88 50 53 70 76 84 97 102 106 99 106 75 66 74 93 100 123 74 78 103 142 170 118 70 48 41
82 78 83 79 82 82 60 62 52 51 56 80 79 94 116 123 142 112 96 115 98 53 52 70 94 103 94 83 99 64 88 117 152 97 124 162 131 178 172 141 86 84 25 18
87 83 85 83 86 92 76 69 53 43 70 63 76 78 91 84 112 123 139 97 107 116 141 129 137 126 141 109 87 111 94 109 160 159 131 131 128 184 160 137 120 53 33 54
93 85 89 84 80 72 66 61 54 52 67 96 104 99 102 83 67 91 110 163 148 151 150 162 156 171 160 195 203 148 184 162 106 156 122 180 201 257 176 143 127 128 125 139
94 89 86 87 80 79 76 56 46 49 84 117 120 91 123 153 158 156 149 133 151 166 168 181 170 174 166 146 144 157 207 130 105 106 160 172 203 168 169 167 173 176 174 159
100 95 84 88 86 70 74 74 60 81 82 107 111 108 103 120 158 165 158 156 148 159 171 178 166 212 199 178 173 179 134 122 136 159 190 214 218 166 170 167 161 156 133 109
92 93 100 89 80 111 124 137 99 59 57 97 118 134 100 77 101 131 141 151 151 160 162 162 196 186 213 281 245 198 171 170 188 216 215 214 166 183 181 181 162 138 103 70
149 161 142 142 149 126 99 114 122 95 97 120 141 158 102 113 127 140 152 153 144 149 199 178 175 194 243 256 167 98 196 189 175 159 140 204 187 193 192 173 139 123 88 53
237 192 201 226 168 133 107 122 112 116 154 153 173 134 91 121 154 150 131 143 140 190 219 233 206 239 246 160 90 106 134 150 154 166 172 171 173 172 152 121 87 57 31 -6
311 365 254 173 186 184 177 168 142 174 214 243 185 215 201 171 160 153 133 119 134 142 139 170 188 269 135 185 162 152 151 186 177 185 177 174 148 125 125 91 49 20 18 2
529 410 370 238 215 271 249 178 164 165 160 140 170 172 204 184 205 191 135 153 137 145 148 169 201 186 64 103 208 175 162 197 189 206 169 150 121 104 81 69 59 42 28 21
360 351 382 380 251 231 148 211 212 175 144 176 179 166 162 171 187 170 150 169 177 201 197 196 219 61 105 128 154 148 224 246 198 131 129 134 127 106 108 108 90 70 37 54
564 423 321 253 246 193 140 188 262 247 237 162 147 166 168 178 155 175 158 178 240 235 229 266 164 129 117 138 129 212 265 218 160 159 155 153 150 129 101 91 58 78 104 103
340 260 280 212 188 152 317 306 251 253 196 183 161 186 195 189 189 216 225 226 198 256 312 211 175 191 144 186 200 236 182 163 193 179 156 131 103 95 82 99 114 109 116 114
376 307 196 230 348 354 278 228 220 215 181 164 200 228 205 234 242 206 252 266 312 315 212 211 245 247 185 148 103 91 129 176 148 148 142 89 61 103 123 138 129 130 138 114
250 249 304 296 273 258 246 224 266 159 154 171 192 249 261 243 265 292 326 419 401 281 235 229 250 251 185 145 114 110 150 104 99 64 55 60 112 156 157 136 143 147 131 120
237 249 219 229 243 247 247 176 170 106 147 224 211 252 220 291 293 427 445 454 309 229 227 202 166 121 81 43 42 115 99 82 93 131 144 157 140 163 185 177 152 134 130 142

GFSNW_con_3kmhel_138.txt.gz
Helicity
30 11 18 38 46 52 47 36 60 62 36 55 35 31 8 44 26 31 20 46 78 10 7 23 17 4 48 69 71 80 66 65 30 46 76 92 92 77 76 98 73 88 86 20
35 13 -1 42 64 26 20 27 36 54 44 43 49 37 17 16 29 21 30 20 47 59 32 18 22 19 26 34 70 64 87 53 31 29 51 62 63 61 91 115 107 34 11 -1
18 24 19 13 60 52 27 36 36 33 51 53 36 36 19 14 9 2 18 17 25 15 6 29 11 14 28 43 61 68 71 71 40 30 28 43 47 46 42 -5 27 58 60 36
36 26 25 17 25 49 40 49 45 14 37 24 13 1 22 23 20 5 12 6 26 20 -1 2 4 38 23 27 42 51 60 20 43 18 22 5 -29 -29 -52 53 115 116 133 83
52 45 44 30 4 19 21 22 31 47 27 23 30 26 28 17 -3 4 4 2 -10 -4 8 -12 -18 -37 -35 -38 -17 -7 1 -20 -29 -55 -48 -52 -16 -4 9 91 127 87 10 -22
72 65 59 61 46 15 8 20 27 12 28 35 19 27 52 46 34 -6 -0 -11 -10 -6 -25 -22 -36 -17 -24 -11 -76 -55 -54 -25 -28 -30 1 -32 -10 66 82 119 162 141 98 92
73 73 76 77 76 51 17 12 7 23 25 -3 17 30 16 43 32 38 42 24 23 38 58 64 48 55 22 -0 38 132 62 59 58 8 -1 -8 39 76 68 62 81 70 68 120
79 79 78 88 92 82 37 32 24 24 43 48 25 25 44 45 35 33 39 58 65 45 43 42 35 42 43 59 150 131 150 128 97 66 74 33 40 67 89 129 139 126 87 182
75 91 88 86 102 96 37 43 40 45 48 40 79 65 34 28 48 48 59 49 50 60 58 60 48 37 51 61 68 52 102 120 144 118 99 67 86 61 45 74 106 161 223 160
67 86 91 91 96 105 58 62 63 51 69 73 78 71 65 76 77 76 71 60 63 78 68 74 59 65 106 74 70 78 104 97 117 114 134 84 111 96 107 130 85 127 123 113
72 89 93 94 103 108 75 59 72 78 86 73 91 96 86 104 95 87 93 84 70 82 71 57 57 77 81 104 120 76 78 75 71 100 122 40 110 112 85 88 131 136 118 67
79 87 88 93 101 112 91 76 52 59 69 79 71 92 100 108 122 137 139 125 109 97 90 87 89 94 104 90 113 99 89 91 94 99 92 146 125 164 216 178 161 140 108 119
86 84 84 87 97 101 106 79 72 53 74 74 84 101 115 137 136 104 120 131 184 175 128 120 125 118 178 146 126 150 151 176 205 197 101 163 224 276 263 220 202 177 148 110
92 86 93 92 91 88 87 83 72 62 75 103 97 73 101 111 116 123 120 136 139 165 200 189 182 170 184 194 207 220 228 245 196 191 163 244 272 328 234 207 166 155 150 133
89 101 102 99 89 77 75 74 78 85 99 119 99 55 52 92 134 162 158 161 170 174 185 211 199 212 215 179 194 197 299 299 296 188 179 228 209 242 209 185 189 192 171 131
96 107 108 106 93 62 67 80 70 76 85 129 137 89 103 112 148 159 163 188 175 209 196 179 172 253 217 201 194 179 134 166 190 209 245 244 247 236 192 212 202 145 114 105
98 106 120 124 98 118 132 143 87 73 69 120 162 124 104 97 117 139 138 142 164 174 171 195 238 200 199 265 241 188 176 180 200 234 261 259 209 178 176 158 129 114 95 79
126 139 171 191 209 169 146 120 90 63 69 96 151 159 124 100 116 118 120 129 156 166 207 193 164 187 229 218 202 161 168 234 266 201 197 191 216 189 149 140 122 101 82 75
110 218 255 282 220 198 167 117 136 121 126 132 134 154 114 92 143 139 114 125 116 162 192 208 194 220 242 193 114 92 156 198 173 180 194 205 176 159 135 110 88 79 82 80
334 452 319 206 201 171 144 142 218 197 181 225 232 205 178 177 162 129 131 102 118 133 128 157 172 243 131 169 140 132 159 154 199 224 195 178 178 150 113 74 85 93 100 98
433 319 271 229 275 287 228 178 233 300 292 190 218 247 304 238 223 189 127 141 126 119 96 139 166 112 65 65 57 144 171 209 177 151 186 193 203 169 113 109 110 131 147 157
337 279 425 390 333 254 204 185 203 186 147 202 185 198 228 217 234 195 135 133 125 130 153 143 149 79 103 93 135 162 200 212 200 208 220 228 172 119 126 146 160 175 170 140
507 375 308 232 219 223 197 175 215 269 253 260 236 252 235 220 203 168 129 109 145 160 155 187 125 105 68 72 134 169 178 194 236 266 265 191 120 110 147 180 178 160 158 124
273 243 245 214 161 131 278 326 266 287 233 225 295 325 267 191 178 174 153 171 173 197 226 173 157 157 118 150 111 177 206 257 257 217 153 102 91 103 130 144 107 99 118 144
261 214 209 248 315 346 279 257 241 237 275 351 340 324 249 231 199 176 218 197 207 208 177 187 199 182 192 201 216 224 203 159 153 126 98 52 63 121 124 78 65 89 155 190
314 273 275 280 304 283 284 269 247 294 370 318 293 334 293 263 281 278 296 364 327 272 196 172 156 171 144 163 177 146 125 144 157 152 141 108 129 137 142 147 190 184 195 192
283 277 273 225 237 242 274 274 317 218 298 346 288 261 251 293 299 409 419 381 242 193 137 111 143 143 87 29 2 22 51 61 74 94 112 156 184 194 205 182 144 131 133 149

GFSNW_con_3kmhel_141.txt.gz
Helicity
29 22 14 39 39 15 12 36 38 60 42 45 39 41 17 38 35 29 25 17 24 8 21 24 25 15 35 66 60 57 59 37 37 37 55 73 77 67 79 85 59 81 82 52
26 35 18 19 52 15 34 45 40 38 33 42 41 39 16 15 27 35 32 16 12 18 6 -9 2 -4 26 42 47 24 55 52 63 78 80 88 65 68 85 121 128 98 114 66
36 36 39 18 22 38 41 45 52 24 21 33 33 38 37 31 15 14 22 25 40 28 11 19 -17 -16 4 26 33 43 55 56 36 5 19 41 45 44 72 137 139 131 121 90
48 48 40 37 8 25 37 45 49 55 48 38 44 18 29 21 22 11 7 8 15 26 -0 9 -4 28 38 47 50 70 65 32 59 38 36 47 46 56 76 140 105 7 30 -11
57 62 65 43 33 11 27 27 35 17 31 36 38 37 50 28 5 10 14 10 7 -5 -3 -7 -9 27 24 19 39 54 70 32 39 21 41 30 8 -12 -11 28 26 50 74 76
69 65 79 88 57 28 24 14 4 34 19 17 32 48 46 52 58 10 -4 -2 -8 -7 -12 -29 -37 -19 -24 -20 -66 -47 -68 -74 -36 -52 4 -14 -14 12 22 133 185 141 123 160
78 84 78 87 89 43 34 25 29 27 18 33 19 27 30 50 37 43 28 27 32 23 39 46 65 58 40 44 102 86 45 67 43 -7 8 -29 41 72 54 52 55 75 121 127
81 94 99 94 96 82 33 37 44 42 25 34 44 54 46 50 34 33 41 49 49 45 56 58 56 59 68 88 166 181 159 139 87 69 71 -3 12 57 69 83 78 108 116 210
75 96 104 101 107 109 48 43 47 63 59 34 41 58 60 57 55 43 48 47 50 75 76 85 66 46 55 55 53 82 134 162 138 126 71 37 51 41 45 56 67 90 159 158
77 86 103 105 107 111 65 54 62 72 76 66 82 70 62 64 81 83 78 69 81 100 105 97 79 71 96 71 71 82 132 128 128 132 111 56 54 83 93 96 53 74 113 146
77 84 99 103 109 117 80 62 72 81 85 74 100 103 88 85 89 103 79 110 99 129 107 92 73 92 75 88 95 72 103 126 114 150 130 42 100 110 75 77 113 108 142 150
77 81 92 96 107 116 90 92 69 68 82 88 70 79 83 98 105 116 108 106 105 107 114 95 108 109 116 107 114 137 117 140 120 120 83 106 98 108 158 165 187 181 174 155
93 89 91 94 102 106 100 87 92 87 101 99 99 100 121 140 143 140 142 138 127 158 153 151 169 142 142 134 109 150 151 188 214 189 123 160 178 245 214 199 197 188 162 129
87 91 96 93 104 106 105 91 80 93 96 127 107 86 98 83 97 110 153 142 162 161 165 164 182 194 184 182 178 166 150 214 206 205 212 236 218 223 220 240 225 195 141 134
83 90 104 99 103 106 114 104 94 90 113 123 105 73 81 92 106 122 103 161 200 203 212 221 175 170 191 204 209 229 304 315 308 237 134 169 141 206 232 236 191 160 150 136
65 90 101 92 94 108 115 116 86 89 107 129 126 100 109 121 122 142 167 176 187 218 208 183 171 229 196 163 192 166 124 135 120 153 178 169 193 225 217 223 180 147 131 103
77 106 132 138 113 144 160 168 89 52 88 122 140 112 106 111 114 117 130 154 154 162 171 175 197 216 211 253 236 182 116 132 213 233 278 256 203 183 185 185 141 120 103 83
109 131 133 150 205 183 185 141 129 108 99 104 204 208 169 87 96 99 68 75 95 104 148 169 153 185 224 196 182 123 145 161 162 142 175 140 158 190 168 146 124 108 99 84
144 137 288 297 252 284 220 154 156 142 196 240 266 216 143 118 163 156 92 29 87 123 210 187 155 176 184 111 93 74 76 87 111 173 173 206 204 180 160 134 131 128 108 87
254 268 258 269 217 279 217 201 171 158 248 287 218 256 219 207 185 133 112 126 159 175 125 155 167 178 110 66 45 56 82 94 172 211 186 207 204 165 152 163 156 138 138 128
289 316 278 251 242 250 192 147 162 181 219 202 250 287 310 201 199 210 186 153 135 141 116 149 145 107 78 89 31 39 61 136 164 167 180 167 162 159 178 194 202 189 180 179
300 355 316 308 262 206 165 183 213 224 192 231 211 232 250 240 265 218 155 151 147 145 164 154 148 82 73 81 63 74 112 173 188 168 164 159 176 174 180 200 207 200 172 133
525 355 283 236 194 249 232 318 322 259 246 191 236 257 236 256 240 238 207 161 179 191 163 157 123 116 96 90 127 139 140 159 176 198 196 183 173 168 180 150 111 61 90 100
381 306 346 238 218 208 339 301 238 258 229 207 277 271 211 227 223 206 184 184 202 191 182 165 184 137 111 151 124 143 170 180 177 158 171 170 151 136 112 83 74 78 108 125
425 311 267 258 266 304 251 251 276 245 254 279 307 270 213 229 220 211 237 252 231 184 181 176 110 116 123 121 128 127 114 93 97 117 147 146 135 124 118 141 150 166 168 178
279 257 281 303 318 339 366 344 335 288 275 289 293 266 231 245 273 314 302 346 301 261 226 128 142 124 81 68 72 66 65 93 115 103 94 108 115 125 152 165 168 151 161 147
341 334 302 269 287 239 238 236 243 251 267 299 284 268 247 278 271 360 377 368 282 233 160 118 111 125 101 65 58 67 82 103 92 105 139 180 185 197 202 159 130 131 144 174

GFSNW_con_3kmhel_144.txt.gz
Helicity
19 23 1 20 23 12 32 43 35 42 40 28 35 39 20 31 12 19 4 6 -2 -5 11 23 29 36 44 70 56 48 61 43 50 59 61 68 71 73 97 100 70 114 98 63
25 22 23 4 34 11 46 47 48 39 23 46 36 21 3 1 10 14 12 1 -4 1 -3 -35 -32 -19 41 49 53 50 58 65 70 87 79 89 75 87 116 148 148 102 117 76
47 35 25 19 11 44 42 48 46 24 18 30 39 42 37 8 11 18 16 12 5 -0 -2 -0 -35 -33 4 25 29 50 56 51 31 10 43 68 76 98 137 183 155 153 185 138
67 62 51 29 10 31 40 24 42 48 38 28 29 27 36 36 41 15 3 4 8 14 6 -4 -17 -19 -8 29 47 60 66 33 59 37 45 60 56 64 104 133 164 156 103 128
67 68 64 56 39 23 30 33 32 17 33 20 28 18 41 46 24 19 16 13 10 -8 -2 -0 14 34 18 12 55 60 79 38 45 40 67 62 64 71 78 109 137 117 147 133
67 71 72 72 68 21 36 24 20 29 13 23 24 20 33 47 45 11 2 12 11 -0 1 -16 -27 -19 3 -10 50 59 78 76 43 -57 64 29 -34 44 80 192 215 142 105 222
57 76 83 78 79 51 42 34 41 41 18 24 27 28 25 32 17 25 26 22 27 28 53 57 59 73 78 83 97 88 71 93 46 -28 10 -52 36 84 77 97 67 102 112 111
58 73 78 81 84 66 44 42 54 56 44 32 29 46 45 42 37 33 28 30 33 45 61 49 44 52 69 101 142 139 129 138 90 73 78 5 22 106 98 80 38 87 101 138
64 73 85 82 84 82 52 49 49 66 74 46 46 53 51 52 48 45 52 51 52 63 75 83 68 48 48 53 55 97 143 142 139 139 82 26 49 43 59 68 65 66 102 156
63 70 81 89 92 91 59 56 56 74 91 73 85 75 68 80 81 71 61 68 85 104 98 98 87 77 103 86 78 78 125 130 158 166 139 72 44 83 74 106 72 73 91 118
68 77 82 91 93 102 77 68 68 85 97 87 101 100 100 107 106 104 79 112 95 125 116 110 95 98 84 109 110 80 88 101 94 157 151 66 77 127 76 62 96 89 116 122
47 69 90 105 107 118 96 99 81 82 99 99 89 92 101 106 111 115 116 128 117 95 128 119 133 121 137 127 115 137 112 135 107 126 86 106 55 93 98 98 90 81 133 153
37 71 73 85 109 121 116 107 96 112 119 119 130 119 132 136 150 143 162 150 141 136 131 121 141 145 187 152 123 142 129 192 190 197 105 105 129 170 163 138 134 147 158 178
48 64 77 74 85 110 119 116 100 117 117 124 121 115 102 95 106 106 138 154 152 177 157 163 178 188 162 180 172 161 142 200 197 201 167 178 141 150 173 195 191 199 185 167
51 71 95 88 87 109 126 116 106 108 130 143 117 92 84 107 114 133 140 173 190 189 185 197 179 169 205 229 242 198 282 269 261 209 139 142 90 63 164 213 170 157 173 164
67 57 98 103 106 122 138 137 106 119 134 156 164 135 149 170 173 180 186 163 172 185 173 170 183 233 224 185 203 140 103 100 95 90 101 110 122 117 177 173 166 158 154 144
74 73 81 118 120 155 182 183 94 73 110 183 182 152 166 198 204 201 193 198 177 171 174 193 218 232 207 274 277 211 188 135 94 119 189 195 152 127 163 190 186 174 169 143
98 96 86 127 213 212 192 165 156 137 139 140 194 216 208 104 135 151 143 155 156 147 154 175 168 179 220 252 148 162 128 91 75 74 149 127 150 179 205 219 207 191 168 153
124 152 197 315 282 264 209 163 167 159 161 159 187 193 138 168 197 191 177 155 136 98 121 129 83 102 186 148 159 139 139 110 99 128 141 135 161 196 216 221 207 188 164 138
391 336 310 345 221 225 247 253 142 172 192 238 189 195 132 148 127 128 153 131 125 141 110 154 156 210 174 128 110 42 13 46 128 194 155 169 210 203 202 199 180 146 141 157
477 358 366 287 256 295 152 131 172 179 200 155 228 253 211 155 181 171 146 151 126 148 116 157 163 143 104 109 69 43 35 40 81 126 137 143 156 163 188 169 132 131 132 146
388 503 493 372 283 236 186 245 266 207 154 207 154 163 295 265 254 182 115 143 146 133 180 162 164 125 109 57 60 67 56 84 119 125 142 154 149 130 123 126 119 107 85 79
675 411 347 291 294 261 291 340 452 362 355 258 184 240 196 195 199 209 176 139 147 183 178 194 198 157 102 89 104 136 142 140 108 112 134 131 110 98 116 115 109 96 101 84
403 384 446 380 248 291 322 312 323 364 299 244 268 243 183 174 184 184 181 163 190 169 182 200 187 175 172 104 88 118 100 81 85 78 73 84 94 101 110 113 116 128 133 140
409 449 401 394 295 286 275 398 432 383 250 294 336 259 214 230 231 204 201 195 206 161 188 166 169 165 159 159 130 93 84 72 75 88 95 85 85 102 119 138 177 183 167 160
446 447 414 355 377 390 448 386 344 237 223 289 259 241 226 243 212 240 223 274 255 230 205 196 221 195 150 105 94 82 77 78 72 69 86 118 144 159 178 177 151 147 158 137
408 517 419 256 314 318 341 375 317 262 306 350 256 223 201 255 252 307 313 365 283 248 241 197 167 158 115 83 78 79 84 83 98 120 136 156 167 167 157 139 117 138 137 158